This demonstration page uses our WeatherBlox Daily Observations layout. Learn more.

Left ArrowRight Arrow

44.8408, -93.29828

Hourly Observations for April 12, 2019

Temp ( °F °C ) Dew Point ( °F °C ) Humidity (%) Winds ( mph kmh ) Pressure ( in mb ) Visibility ( mi km ) Precip ( " mm )
12:53 am 00:53 Cloudy with Light Rain 33 0.6 31 -0.6 92 92 E 13 20 29.47 998 7 11 0.00 0.03
1:50 am 01:50 Cloudy with Light Rain 34 1 30 -1 87 87 E 14 22 29.47 998 6 10 0.00 0.03
1:53 am 01:53 Cloudy with Light Wintry Mix 34 1.1 31 -0.6 89 89 E 12 19 29.45 997 7 11 0.01 0.25
2:51 am 02:51 Cloudy with Light Rain 34 1 30 -1 87 87 E 13 20 29.44 997 5 8 0.00 0.03
2:53 am 02:53 Cloudy with Light Rain 33 0.6 31 -0.6 92 92 E 12 19 29.43 997 5 8 0.00 0.03
3:53 am 03:53 Cloudy with Light Snow 33 0.6 31 -0.6 92 92 ESE 14 22 29.40 996 4 6 0.01 0.25
4:53 am 04:53 Cloudy 34 1.1 32 0 92 92 SE 8 13 29.40 996 7 11 0.00 0.03
5:30 am 05:30 Cloudy with Mist and Fog 34 1.1 32 0 92 92 SE 7 11 29.42 996 4 6 0.00 0.00
5:49 am 05:49 Cloudy with Mist and Fog 34 1 32 0 93 93 SE 7 11 29.42 996 5 8 0.00 0.00
5:53 am 05:53 Cloudy with Mist and Fog 34 1.1 32 0 92 92 SSE 7 11 29.40 996 6 10 0.00 0.00
6:05 am 06:05 Cloudy 34 1.1 32 0 92 92 SE 7 11 29.42 996 9 14 0.00 0.00
6:41 am 06:41 Cloudy with Light Snow 33 0.6 32 0 96 96 SE 6 9 29.42 996 7 11 0.00 0.03
6:53 am 06:53 Cloudy with Light Snow 33 0.6 32 0 96 96 SE 7 11 29.41 996 7 11 0.00 0.03
7:53 am 07:53 Cloudy with Light Snow 34 1.1 30 -1.1 85 85 SSE 8 13 29.41 996 4 6 0.00 0.03
8:00 am 08:00 Cloudy with Light Snow 33 0.6 31 -0.6 92 92 S 10 17 29.43 997 2 2 0.00 0.03
8:07 am 08:07 Cloudy with Light Snow 33 0.6 30 -1.1 89 89 S 9 15 29.43 997 2 3 0.00 0.03
8:24 am 08:24 Cloudy with Light Snow 33 0.6 30 -1.1 89 89 SSE 8 13 29.44 997 4 6 0.00 0.03
8:31 am 08:31 Cloudy with Light Snow 33 0.6 31 -0.6 92 92 SSE 8 13 29.43 997 4 6 0.00 0.03
8:49 am 08:49 Cloudy with Light Snow 34 1 30 -1 87 87 SE 5 7 29.43 997 1 2 0.00 0.03
8:53 am 08:53 Cloudy with Light Snow 33 0.6 31 -0.6 92 92 SE 6 9 29.41 996 1 2 0.01 0.25
9:53 am 09:53 Cloudy with Light Snow 33 0.6 31 -0.6 92 92 SE 7 11 29.42 996 1 2 0.02 0.51
10:03 am 10:03 Cloudy with Light Snow 33 0.6 31 -0.6 92 92 SSE 8 13 29.44 997 1 2 0.00 0.03
10:25 am 10:25 Cloudy with Light Snow 33 0.6 30 -1.1 89 89 SE 7 11 29.44 997 2 3 0.01 0.25
10:49 am 10:49 Cloudy with Light Snow 34 1 30 -1 87 87 SSE 3 6 29.45 997 2 3 0.01 0.25
10:53 am 10:53 Cloudy with Light Snow 33 0.6 30 -1.1 89 89 SSE 3 6 29.43 997 2 3 0.01 0.25
10:57 am 10:57 Cloudy with Light Snow 33 0.6 30 -1.1 89 89 SE 6 9 29.45 997 2 3 0.00 0.03
11:29 am 11:29 Cloudy with Light Snow 33 0.6 31 -0.6 92 92 Calm 29.45 997 2 3 0.01 0.25
11:53 am 11:53 Cloudy with Light Snow 35 1.7 32 0 89 89 Calm 29.44 997 2 3 0.02 0.51
12:00 pm 12:00 Cloudy with Light Snow 34 1.1 32 0 92 92 Calm 29.46 998 2 3 0.00 0.03
12:22 pm 12:22 Cloudy with Light Snow 34 1.1 31 -0.6 89 89 SW 3 6 29.47 998 4 6 0.00 0.03
12:42 pm 12:42 Cloudy with Light Snow 35 1.7 31 -0.6 85 85 W 5 7 29.47 998 6 10 0.00 0.03
12:53 pm 12:53 Cloudy with Light Snow 34 1.1 31 -0.6 89 89 SW 8 13 29.46 998 7 11 0.00 0.03
1:29 pm 13:29 Cloudy with Light Snow 36 2.2 31 -0.6 82 82 VRB 7 11 29.50 999 7 11 0.00 0.03
1:38 pm 13:38 Cloudy with Light Snow 36 2.2 31 -0.6 82 82 WSW 9 15 29.50 999 7 11 0.00 0.03
1:53 pm 13:53 Cloudy with Light Snow 36 2.2 31 -0.6 82 82 WSW 12 19 29.49 999 9 14 0.00 0.03
2:11 pm 14:11 Cloudy with Light Snow 36 2.2 31 -0.6 82 82 WSW 12 19 29.52 1000 9 14 0.00 0.03
2:25 pm 14:25 Cloudy with Light Snow 36 2.2 31 -0.6 82 82 WSW 13 20 29.53 1000 9 14 0.00 0.03
2:37 pm 14:37 Cloudy 37 2.8 31 -0.6 79 79 SW 13 20 29.53 1000 9 14 0.00 0.03
2:53 pm 14:53 Cloudy 36 2.2 30 -1.1 79 79 WSW 15 24 29.52 1000 10 16 0.00 0.03
3:16 pm 15:16 Cloudy 35 1.7 31 -0.6 85 85 SW 16 26 29.56 1001 10 16 0.00 0.00
3:31 pm 15:31 Cloudy 35 1.7 30 -1.1 82 82 WSW 10 17 29.56 1001 10 16 0.00 0.00
3:53 pm 15:53 Cloudy 35 1.7 29 -1.7 78 78 W 10 17 29.56 1001 10 16 0.00 0.00
4:20 pm 16:20 Cloudy with Light Snow 34 1.1 29 -1.7 82 82 WSW 13 20 29.60 1002 2 3 0.00 0.03
4:28 pm 16:28 Cloudy with Light Snow 33 0.6 29 -1.7 85 85 WSW 17 28 29.61 1003 2 2 0.00 0.03
4:37 pm 16:37 Cloudy with Light Snow 33 0.6 29 -1.7 85 85 WSW 16 26 29.62 1003 1 2 0.00 0.03
4:44 pm 16:44 Cloudy with Light Snow 33 0.6 29 -1.7 85 85 WSW 14 22 29.62 1003 2 2 0.00 0.03
4:53 pm 16:53 Cloudy with Light Snow 33 0.6 29 -1.7 85 85 WSW 14 22 29.61 1003 2 2 0.00 0.03
4:59 pm 16:59 Cloudy with Light Snow 33 0.6 29 -1.7 85 85 WSW 16 26 29.63 1003 4 6 0.00 0.03
5:12 pm 17:12 Cloudy with Light Snow 33 0.6 29 -1.7 85 85 WSW 15 24 29.63 1003 2 3 0.00 0.03
5:20 pm 17:20 Cloudy with Light Snow 33 0.6 29 -1.7 85 85 WSW 14 22 29.64 1004 2 2 0.01 0.25
5:31 pm 17:31 Cloudy with Light Snow 32 0 28 -2.2 85 85 W 14 22 29.65 1004 2 2 0.01 0.25
5:51 pm 17:51 Cloudy with Light Snow 32 0 28 -2 87 87 WSW 12 19 29.66 1005 2 3 0.01 0.25
5:53 pm 17:53 Cloudy with Light Snow 32 0 28 -2.2 85 85 WSW 15 24 29.65 1004 2 3 0.01 0.25
6:01 pm 18:01 Cloudy with Light Snow 32 0 28 -2.2 85 85 WSW 18 30 29.67 1005 4 6 0.00 0.03
6:42 pm 18:42 Cloudy with Light Snow 33 0.6 27 -2.8 78 78 WSW 16 26 29.68 1005 9 14 0.00 0.03
6:53 pm 18:53 Cloudy with Light Snow 33 0.6 27 -2.8 78 78 WSW 17 28 29.67 1005 9 14 0.00 0.03
7:53 pm 19:53 Cloudy 33 0.6 27 -2.8 78 78 WSW 10 17 29.70 1006 10 16 0.00 0.03
8:53 pm 20:53 Cloudy 32 0 26 -3.3 79 79 WSW 16 26 29.73 1007 10 16 0.00 0.00
9:53 pm 21:53 Cloudy 32 0 26 -3.3 79 79 WSW 14 22 29.76 1008 10 16 0.00 0.00
10:53 pm 22:53 Cloudy 32 0 25 -3.9 75 75 W 16 26 29.78 1009 10 16 0.00 0.00
11:53 pm 23:53 Cloudy 31 -0.6 25 -3.9 79 79 W 16 26 29.80 1009 10 16 0.00 0.00

Powered by AerisWeather